Location: Newark
(33.1119°N, 7.4058°W)
Time: 12:43:24
(UTC+00:00)

Hubble Space Telescope - Pass Details

Date: 19 November 2019
Orbit: 536 x 540 km, 28.5° (Epoch: 14 December)

Event Time Altitude Azimuth Distance (km) Brightness Sun altitude
Rises 17:59:16 0° 225° (SW) 2,663 5.6 -7.4°
Reaches altitude 10° 18:02:00 10° 207° (SSW) 1,775 4.1 -7.9°
Maximum altitude 18:04:58 19° 160° (SSE) 1,286 2.7 -8.5°
Drops below altitude 10° 18:07:58 10° 114° (ESE) 1,780 3.0 -9.1°
Enters shadow 18:08:41 - 108° (ESE) 1,993 3.2 -9.2°
